Time,TemperatureF,DewpointF,PressureIn,WindDirection,WindDirectionDegrees,WindSpeedMPH,WindSpeedGustMPH,Humidity,HourlyPrecipIn,Conditions,Clouds,dailyrainin,SoftwareType,DateUTC
2013-08-14 00:00:00,65.2,64.0,29.74,West,281,0.0,0.0,96,0.00,,,0.00,Wunderground v.1.15,2013-08-14 04:00:00,
2013-08-14 00:07:00,65.1,64.0,29.74,West,281,0.0,1.0,96,0.00,,,0.00,weatherlink.com 1.10,2013-08-14 04:07:00,
2013-08-14 00:10:00,65.1,63.9,29.74,West,281,0.0,0.0,96,0.00,,,0.00,Wunderground v.1.15,2013-08-14 04:10:00,
2013-08-14 00:20:00,64.9,63.7,29.73,West,281,0.0,0.0,96,0.00,,,0.00,Wunderground v.1.15,2013-08-14 04:20:00,
2013-08-14 00:30:00,64.8,63.6,29.74,West,281,0.0,0.0,96,0.00,,,0.00,Wunderground v.1.15,2013-08-14 04:30:00,
2013-08-14 00:37:00,64.7,64.0,29.73,West,281,0.0,3.0,96,0.00,,,0.00,weatherlink.com 1.10,2013-08-14 04:37:00,
2013-08-14 00:40:00,64.7,63.5,29.73,West,276,0.0,0.0,96,0.00,,,0.00,Wunderground v.1.15,2013-08-14 04:40:00,
2013-08-14 00:50:00,64.6,63.4,29.73,West,273,0.0,0.0,96,0.00,,,0.00,Wunderground v.1.15,2013-08-14 04:50:00,
2013-08-14 01:00:00,64.3,62.5,29.74,WSW,249,0.0,3.0,94,0.00,,,0.00,Wunderground v.1.15,2013-08-14 05:00:00,
2013-08-14 01:06:00,64.1,62.0,29.73,West,271,0.0,6.0,94,0.00,,,0.00,weatherlink.com 1.10,2013-08-14 05:06:00,
2013-08-14 01:20:00,63.7,61.3,29.74,WNW,296,0.0,0.0,92,0.00,,,0.00,Wunderground v.1.15,2013-08-14 05:20:00,
2013-08-14 01:30:00,63.5,60.8,29.73,West,278,0.0,1.0,91,0.00,,,0.00,Wunderground v.1.15,2013-08-14 05:30:00,
2013-08-14 01:37:00,63.3,61.0,29.73,West,275,0.0,4.0,91,0.00,,,0.00,weatherlink.com 1.10,2013-08-14 05:37:00,
2013-08-14 01:51:00,63.1,60.0,29.73,WSW,252,1.0,6.0,90,0.00,,,0.00,weatherlink.com 1.10,2013-08-14 05:51:00,
2013-08-14 02:00:00,63.1,60.1,29.73,West,277,1.0,3.0,90,0.00,,,0.00,Wunderground v.1.15,2013-08-14 06:00:00,
2013-08-14 02:07:00,63.1,60.0,29.73,West,274,0.0,8.0,89,0.00,,,0.00,weatherlink.com 1.10,2013-08-14 06:07:00,
2013-08-14 02:20:00,62.9,59.9,29.74,West,267,0.0,3.0,90,0.00,,,0.00,Wunderground v.1.15,2013-08-14 06:20:00,
2013-08-14 02:30:00,62.9,59.6,29.74,WSW,250,1.0,1.0,89,0.00,,,0.00,Wunderground v.1.15,2013-08-14 06:30:00,
2013-08-14 02:37:00,62.9,59.0,29.74,SW,227,0.0,4.0,88,0.00,,,0.00,weatherlink.com 1.10,2013-08-14 06:37:00,
2013-08-14 02:50:00,62.8,59.2,29.74,West,275,1.0,1.0,88,0.00,,,0.00,Wunderground v.1.15,2013-08-14 06:50:00,
2013-08-14 03:00:00,62.6,59.0,29.74,West,264,0.0,2.0,88,0.00,,,0.00,Wunderground v.1.15,2013-08-14 07:00:00,
2013-08-14 03:07:00,62.4,59.0,29.74,West,263,0.0,7.0,87,0.00,,,0.00,weatherlink.com 1.10,2013-08-14 07:07:00,
2013-08-14 03:20:00,62.0,57.1,29.74,WSW,254,1.0,1.0,84,0.00,,,0.01,Wunderground v.1.15,2013-08-14 07:20:00,
2013-08-14 03:30:00,61.7,56.8,29.74,NNW,336,1.0,4.0,84,0.00,,,0.01,Wunderground v.1.15,2013-08-14 07:30:00,
2013-08-14 03:38:00,61.4,56.0,29.74,East,80,0.0,13.0,82,0.01,,,0.01,weatherlink.com 1.10,2013-08-14 07:38:00,
2013-08-14 03:50:00,61.1,54.9,29.74,NW,314,3.0,3.0,80,0.00,,,0.01,Wunderground v.1.15,2013-08-14 07:50:00,
2013-08-14 04:00:00,60.8,53.5,29.74,NW,315,3.0,4.0,77,0.00,,,0.01,Wunderground v.1.15,2013-08-14 08:00:00,
2013-08-14 04:08:00,60.6,53.0,29.75,SW,220,0.0,9.0,77,0.01,,,0.01,weatherlink.com 1.10,2013-08-14 08:08:00,
2013-08-14 04:20:00,60.1,52.9,29.75,West,264,1.0,1.0,77,0.00,,,0.01,Wunderground v.1.15,2013-08-14 08:20:00,
2013-08-14 04:30:00,59.8,52.2,29.75,West,259,2.0,3.0,76,0.00,,,0.01,Wunderground v.1.15,2013-08-14 08:30:00,
2013-08-14 04:38:00,59.5,52.0,29.75,West,269,8.0,8.0,76,0.00,,,0.01,weatherlink.com 1.10,2013-08-14 08:38:00,
2013-08-14 04:50:00,59.3,51.0,29.75,NW,312,1.0,1.0,74,0.00,,,0.01,Wunderground v.1.15,2013-08-14 08:50:00,
2013-08-14 05:00:00,59.1,50.8,29.75,WNW,299,1.0,1.0,74,0.00,,,0.01,Wunderground v.1.15,2013-08-14 09:00:00,
2013-08-14 05:09:00,58.9,51.0,29.76,West,269,0.0,7.0,74,0.00,,,0.01,weatherlink.com 1.10,2013-08-14 09:09:00,
2013-08-14 05:20:00,58.6,50.7,29.76,West,266,0.0,0.0,75,0.00,,,0.01,Wunderground v.1.15,2013-08-14 09:20:00,
2013-08-14 05:30:00,58.3,50.0,29.76,West,269,0.0,0.0,74,0.00,,,0.01,Wunderground v.1.15,2013-08-14 09:30:00,
2013-08-14 05:39:00,58.1,50.0,29.77,West,269,0.0,1.0,74,0.00,,,0.01,weatherlink.com 1.10,2013-08-14 09:39:00,
2013-08-14 05:50:00,57.7,49.1,29.78,WSW,253,0.0,0.0,73,0.00,,,0.01,Wunderground v.1.15,2013-08-14 09:50:00,
2013-08-14 06:00:00,57.5,50.3,29.79,WSW,256,0.0,0.0,77,0.00,,,0.01,Wunderground v.1.15,2013-08-14 10:00:00,
2013-08-14 06:09:00,57.2,50.0,29.79,WSW,257,0.0,4.0,76,0.00,,,0.01,weatherlink.com 1.10,2013-08-14 10:09:00,
2013-08-14 06:10:00,57.2,50.1,29.79,WSW,257,0.0,0.0,77,0.00,,,0.01,Wunderground v.1.15,2013-08-14 10:10:00,
2013-08-14 06:20:00,57.2,50.1,29.79,WSW,252,0.0,0.0,77,0.00,,,0.01,Wunderground v.1.15,2013-08-14 10:20:00,
2013-08-14 06:30:00,57.2,51.1,29.80,SW,221,0.0,0.0,80,0.00,,,0.01,Wunderground v.1.15,2013-08-14 10:30:00,
2013-08-14 06:39:00,56.9,50.0,29.80,SSW,206,0.0,1.0,79,0.00,,,0.01,weatherlink.com 1.10,2013-08-14 10:39:00,
2013-08-14 06:50:00,56.7,49.6,29.80,SSW,206,0.0,0.0,77,0.00,,,0.01,Wunderground v.1.15,2013-08-14 10:50:00,
2013-08-14 06:55:00,56.7,50.0,29.80,SSW,206,0.0,2.0,78,0.00,,,0.01,weatherlink.com 1.10,2013-08-14 10:55:00,
2013-08-14 07:00:00,56.7,49.2,29.80,SW,232,0.0,0.0,76,0.00,,,0.01,Wunderground v.1.15,2013-08-14 11:00:00,
2013-08-14 07:10:00,56.8,49.3,29.81,SW,232,0.0,0.0,76,0.00,,,0.01,Wunderground v.1.15,2013-08-14 11:10:00,
2013-08-14 07:20:00,57.1,49.2,29.81,SW,236,0.0,0.0,75,0.00,,,0.01,Wunderground v.1.15,2013-08-14 11:20:00,
2013-08-14 07:25:00,57.2,49.0,29.81,WSW,258,0.0,3.0,75,0.00,,,0.01,weatherlink.com 1.10,2013-08-14 11:25:00,
2013-08-14 07:39:00,57.6,49.0,29.81,West,272,2.0,4.0,73,0.00,,,0.01,weatherlink.com 1.10,2013-08-14 11:39:00,
2013-08-14 07:54:00,58.1,48.0,29.81,West,278,0.0,5.0,70,0.00,,,0.01,weatherlink.com 1.10,2013-08-14 11:54:00,
2013-08-14 08:09:00,58.5,49.0,29.82,SW,229,0.0,6.0,71,0.00,,,0.01,weatherlink.com 1.10,2013-08-14 12:09:00,
2013-08-14 08:25:00,59.0,49.0,29.81,West,263,7.0,7.0,69,0.00,,,0.01,weatherlink.com 1.10,2013-08-14 12:25:00,
2013-08-14 08:40:00,59.5,49.0,29.82,NNE,13,4.0,5.0,68,0.00,,,0.01,weatherlink.com 1.10,2013-08-14 12:40:00,
2013-08-14 08:55:00,59.9,50.0,29.82,WSW,255,0.0,8.0,69,0.00,,,0.01,weatherlink.com 1.10,2013-08-14 12:55:00,
2013-08-14 09:10:00,60.4,50.0,29.82,NW,316,0.0,7.0,68,0.00,,,0.01,weatherlink.com 1.10,2013-08-14 13:10:00,
2013-08-14 09:25:00,60.8,49.0,29.82,SW,216,0.0,9.0,66,0.00,,,0.01,weatherlink.com 1.10,2013-08-14 13:25:00,
2013-08-14 09:40:00,61.2,49.0,29.82,NNW,336,3.0,8.0,65,0.00,,,0.01,weatherlink.com 1.10,2013-08-14 13:40:00,
2013-08-14 09:55:00,61.8,50.0,29.82,WNW,286,0.0,6.0,66,0.00,,,0.01,weatherlink.com 1.10,2013-08-14 13:55:00,
2013-08-14 10:10:00,62.2,51.0,29.83,WSW,249,0.0,12.0,66,0.00,,,0.01,weatherlink.com 1.10,2013-08-14 14:10:00,
2013-08-14 10:25:00,62.6,50.0,29.84,NW,318,1.0,6.0,64,0.00,,,0.01,weatherlink.com 1.10,2013-08-14 14:25:00,
2013-08-14 10:40:00,63.4,52.0,29.84,NW,325,2.0,8.0,66,0.00,,,0.01,weatherlink.com 1.10,2013-08-14 14:40:00,
2013-08-14 10:55:00,64.0,51.0,29.84,North,5,0.0,12.0,64,0.00,,,0.01,weatherlink.com 1.10,2013-08-14 14:55:00,
2013-08-14 11:10:00,64.8,53.0,29.84,WSW,248,0.0,8.0,65,0.00,,,0.01,weatherlink.com 1.10,2013-08-14 15:10:00,
2013-08-14 11:25:00,65.4,52.0,29.84,North,5,2.0,10.0,62,0.00,,,0.01,weatherlink.com 1.10,2013-08-14 15:25:00,
2013-08-14 11:40:00,66.2,53.0,29.84,NNW,344,0.0,7.0,62,0.00,,,0.01,weatherlink.com 1.10,2013-08-14 15:40:00,
2013-08-14 11:55:00,66.5,53.0,29.84,West,277,0.0,7.0,62,0.00,,,0.01,weatherlink.com 1.10,2013-08-14 15:55:00,
2013-08-14 12:10:00,66.6,54.0,29.84,WNW,296,4.0,9.0,64,0.00,,,0.01,weatherlink.com 1.10,2013-08-14 16:10:00,
2013-08-14 12:25:00,67.4,53.0,29.84,NNW,328,6.0,9.0,60,0.00,,,0.01,weatherlink.com 1.10,2013-08-14 16:25:00,
2013-08-14 12:40:00,67.6,54.0,29.84,WNW,301,2.0,15.0,61,0.00,,,0.01,weatherlink.com 1.10,2013-08-14 16:40:00,
2013-08-14 12:55:00,68.6,54.0,29.84,SW,234,5.0,12.0,59,0.00,,,0.01,weatherlink.com 1.10,2013-08-14 16:55:00,
2013-08-14 13:10:00,68.6,53.0,29.85,West,266,5.0,13.0,57,0.00,,,0.01,weatherlink.com 1.10,2013-08-14 17:10:00,
2013-08-14 13:25:00,69.0,54.0,29.85,NNW,345,1.0,9.0,60,0.00,,,0.01,weatherlink.com 1.10,2013-08-14 17:25:00,
2013-08-14 13:40:00,70.2,55.0,29.85,West,275,0.0,9.0,59,0.00,,,0.01,weatherlink.com 1.10,2013-08-14 17:40:00,
2013-08-14 13:55:00,70.7,55.0,29.85,NW,315,0.0,7.0,57,0.00,,,0.01,weatherlink.com 1.10,2013-08-14 17:55:00,
2013-08-14 14:10:00,70.6,55.0,29.85,WSW,252,3.0,11.0,58,0.00,,,0.01,weatherlink.com 1.10,2013-08-14 18:10:00,
2013-08-14 14:25:00,70.0,54.0,29.86,North,5,4.0,11.0,58,0.00,,,0.01,weatherlink.com 1.10,2013-08-14 18:25:00,
2013-08-14 14:40:00,70.6,56.0,29.86,SSW,206,4.0,12.0,60,0.00,,,0.01,weatherlink.com 1.10,2013-08-14 18:40:00,
2013-08-14 14:55:00,70.6,54.0,29.85,NW,308,5.0,16.0,56,0.00,,,0.01,weatherlink.com 1.10,2013-08-14 18:55:00,
2013-08-14 15:25:00,71.5,55.0,29.84,NW,311,2.0,14.0,56,0.00,,,0.01,weatherlink.com 1.10,2013-08-14 19:25:00,
2013-08-14 15:40:00,71.3,57.0,29.85,South,186,3.0,10.0,60,0.00,,,0.01,weatherlink.com 1.10,2013-08-14 19:40:00,
2013-08-14 15:55:00,72.3,56.0,29.85,West,275,1.0,10.0,57,0.00,,,0.01,weatherlink.com 1.10,2013-08-14 19:55:00,
2013-08-14 16:10:00,71.8,56.0,29.85,NW,324,0.0,11.0,57,0.00,,,0.01,weatherlink.com 1.10,2013-08-14 20:10:00,
2013-08-14 16:25:00,71.3,56.0,29.86,North,5,0.0,6.0,59,0.00,,,0.01,weatherlink.com 1.10,2013-08-14 20:25:00,
2013-08-14 16:40:00,72.3,57.0,29.86,NNW,335,0.0,8.0,59,0.00,,,0.01,weatherlink.com 1.10,2013-08-14 20:40:00,
2013-08-14 16:55:00,72.2,56.0,29.86,NW,307,4.0,11.0,58,0.00,,,0.01,weatherlink.com 1.10,2013-08-14 20:55:00,
2013-08-14 17:10:00,72.0,57.0,29.87,SW,221,0.0,7.0,60,0.00,,,0.01,weatherlink.com 1.10,2013-08-14 21:10:00,
2013-08-14 17:25:00,72.2,57.0,29.87,NW,319,2.0,9.0,59,0.00,,,0.01,weatherlink.com 1.10,2013-08-14 21:25:00,
2013-08-14 17:40:00,71.7,55.0,29.88,NW,314,0.0,7.0,57,0.00,,,0.01,weatherlink.com 1.10,2013-08-14 21:40:00,
2013-08-14 17:55:00,70.7,55.0,29.88,NW,320,0.0,10.0,57,0.00,,,0.01,weatherlink.com 1.10,2013-08-14 21:55:00,
2013-08-14 18:10:00,70.6,55.0,29.88,NW,319,4.0,15.0,59,0.00,,,0.01,weatherlink.com 1.10,2013-08-14 22:10:00,
2013-08-14 18:25:00,69.6,54.0,29.89,WSW,255,7.0,8.0,59,0.00,,,0.01,weatherlink.com 1.10,2013-08-14 22:25:00,
2013-08-14 18:40:00,69.2,55.0,29.89,WNW,283,0.0,3.0,60,0.00,,,0.01,weatherlink.com 1.10,2013-08-14 22:40:00,
2013-08-14 18:55:00,68.7,55.0,29.90,West,261,2.0,9.0,61,0.00,,,0.01,weatherlink.com 1.10,2013-08-14 22:55:00,
2013-08-14 19:11:00,68.2,55.0,29.90,West,269,0.0,7.0,62,0.00,,,0.01,weatherlink.com 1.10,2013-08-14 23:11:00,
2013-08-14 19:26:00,67.7,54.0,29.91,WNW,296,0.0,8.0,62,0.00,,,0.01,weatherlink.com 1.10,2013-08-14 23:26:00,
2013-08-14 19:41:00,67.1,54.0,29.91,West,270,0.0,6.0,63,0.00,,,0.01,weatherlink.com 1.10,2013-08-14 23:41:00,
2013-08-14 19:56:00,66.6,54.0,29.92,WSW,246,0.0,2.0,64,0.00,,,0.01,weatherlink.com 1.10,2013-08-14 23:56:00,
2013-08-14 20:11:00,65.9,55.0,29.93,WSW,247,0.0,2.0,67,0.00,,,0.01,weatherlink.com 1.10,2013-08-15 00:11:00,
2013-08-14 20:26:00,65.0,54.0,29.94,WSW,247,0.0,1.0,67,0.00,,,0.01,weatherlink.com 1.10,2013-08-15 00:26:00,
2013-08-14 20:41:00,64.5,54.0,29.95,WSW,247,0.0,3.0,69,0.00,,,0.01,weatherlink.com 1.10,2013-08-15 00:41:00,
2013-08-14 20:56:00,63.9,54.0,29.96,WSW,248,0.0,2.0,70,0.00,,,0.01,weatherlink.com 1.10,2013-08-15 00:56:00,
2013-08-14 21:11:00,63.8,53.0,29.96,WSW,247,0.0,1.0,69,0.00,,,0.01,weatherlink.com 1.10,2013-08-15 01:11:00,
2013-08-14 21:26:00,63.5,53.0,29.97,WSW,252,0.0,3.0,69,0.00,,,0.01,weatherlink.com 1.10,2013-08-15 01:26:00,
2013-08-14 21:41:00,63.6,53.0,29.98,West,266,0.0,4.0,68,0.00,,,0.01,weatherlink.com 1.10,2013-08-15 01:41:00,
2013-08-14 21:56:00,63.4,52.0,29.98,West,276,3.0,5.0,67,0.00,,,0.01,weatherlink.com 1.10,2013-08-15 01:56:00,
2013-08-14 22:11:00,63.1,52.0,29.99,West,271,0.0,4.0,67,0.00,,,0.01,weatherlink.com 1.10,2013-08-15 02:11:00,
2013-08-14 22:26:00,62.8,52.0,29.99,West,271,0.0,1.0,68,0.00,,,0.01,weatherlink.com 1.10,2013-08-15 02:26:00,
2013-08-14 22:41:00,62.6,52.0,30.00,West,279,0.0,4.0,68,0.00,,,0.01,weatherlink.com 1.10,2013-08-15 02:41:00,
2013-08-14 22:56:00,62.4,52.0,30.00,West,279,0.0,1.0,69,0.00,,,0.01,weatherlink.com 1.10,2013-08-15 02:56:00,
2013-08-14 23:11:00,62.1,52.0,30.00,West,275,0.0,4.0,69,0.00,,,0.01,weatherlink.com 1.10,2013-08-15 03:11:00,
2013-08-14 23:26:00,61.8,52.0,30.01,West,275,0.0,2.0,70,0.00,,,0.01,weatherlink.com 1.10,2013-08-15 03:26:00,
2013-08-14 23:41:00,61.4,52.0,30.02,West,274,0.0,1.0,71,0.00,,,0.01,weatherlink.com 1.10,2013-08-15 03:41:00,
2013-08-14 23:56:00,60.7,52.0,30.02,West,275,0.0,0.0,72,0.00,,,0.01,weatherlink.com 1.10,2013-08-15 03:56:00,